Regional Weather Roundup
Issued by NWS

Home | Current Version | Previous Version | Graphics & Text | Print | Product List | Glossary On
Versions: 1 2 3 4 5 6 7 8 9 10 11 12 13 14 15 16 17 18 19 20 21 22 23 24 25 26 27 28 29 30 31 32 33 34 35 36 37 38 39 40 41 42 43 44 45 46 47 48 49 50
000
ASUS45 KABQ 021510
RWRNM
NEW MEXICO REGIONAL WEATHER ROUNDUP
NATIONAL WEATHER SERVICE ALBUQUERQUE NM
800 AM MST FRI DEC 02 2016

NOTE: "FAIR" MEANS FEW OR NO CLOUDS BELOW 12,000 FEET AGL WITH NO
       SIGNIFICANT WEATHER OR OBSTRUCTIONS TO VISION.

      THIS PRODUCT IS RELEASED AS TWO VERSIONS.  ONE VERSION NEAR
      THE TOP OF THE HOUR CONTAINING PRELIMINARY DATA FROM ALBUQUERQUE
      AND OTHER STATIONS.  A FINAL VERSION WITH ADDITIONAL DATA IS
      ISSUED ABOUT 10 MINUTES AFTER THE HOUR.

NMZ501-503-504-510>518-021600-
NORTHWEST PLATEAU/NORTHCENTRAL MOUNTAINS

CITY           SKY/WX    TMP DP  RH WIND       PRES   REMARKS
FARMINGTON     CLOUDY    24  19  81 CALM      29.98R
LOS ALAMOS     LGT SNOW  26  21  82 SW6       30.03R VSB 1   WCI  19
SANTA FE       LGT SNOW  30  16  56 CALM      30.02R VSB 1
TAOS           CLOUDY    23   9  54 N6        30.02S WCI  16
ANGEL FIRE     CLOUDY    16  11  82 CALM      30.05R

$$
NMZ402-403-502-505>509-021600-
WESTCENTRAL MOUNTAINS/SOUTHWEST MOUNTAINS

CITY           SKY/WX    TMP DP  RH WIND       PRES   REMARKS
GALLUP         CLOUDY    25  19  78 CALM      29.95R
GRANTS         FAIR      28  22  80 CALM      29.98R
SILVER CITY    FAIR      37  24  61 CALM      29.95R

$$
NMZ407-409-411-412-021600-
SOUTHERN DESERTS

CITY           SKY/WX    TMP DP  RH WIND       PRES   REMARKS
DEMING         FAIR      34  20  56 CALM      29.95R
LAS CRUCES     FAIR      38  24  56 NW5       29.96R WCI  34
HOLLOMAN AFB   FAIR      29  14  54 CALM      29.99R
T OR C         FAIR      34  16  47 W3        29.96R

$$
NMZ519>523-021600-
CENTRAL VALLEYS/CENTRAL HIGHLANDS

CITY           SKY/WX    TMP DP  RH WIND       PRES   REMARKS
ALBUQUERQUE    PTSUNNY   34  18  52 N9        30.01R WCI  27
DOUBLE EAGLE   MOCLDY    36  18  48 NE10      30.02R WCI  28
MORIARTY ARPT  PTSUNNY   31  12  43 E3        30.05R
CLINES CORNERS PTSUNNY   25  11  55 E16       30.03R WCI  12
BELEN          FAIR      32  19  58 CALM      30.00R
SOCORRO        FAIR      33  16  49 N10       29.99R WCI  24

$$
NMZ524>526-539-540-021600-
SOUTHCENTRAL MOUNTAINS

CITY           SKY/WX    TMP DP  RH WIND       PRES   REMARKS
RUIDOSO        FAIR      32  14  47 CALM      30.04R

$$
NMZ527>531-021600-
NORTHEAST HIGHLANDS/NORTHEAST PLAINS

CITY           SKY/WX    TMP DP  RH WIND       PRES   REMARKS
LAS VEGAS      CLOUDY    24  15  68 N6        30.07R WCI  17
RATON          PTSUNNY   23  13  65 NE5       30.09R WCI  17
CLAYTON        CLOUDY    32  18  56 NE6       30.14R WCI  26

$$
NMZ532>537-021600-
EASTCENTRAL PLAINS

CITY           SKY/WX    TMP DP  RH WIND       PRES   REMARKS
TUCUMCARI      FAIR      34  17  50 NE9       30.12R WCI  27
CANNON AFB     CLOUDY    32  18  55 E10       30.09R WCI  24
CLOVIS AIRPORT CLOUDY    30  18  59 NE13      30.08R WCI  20

$$
NMZ028-029-538-021600-
SOUTHEAST PLAINS

CITY           SKY/WX    TMP DP  RH WIND       PRES   REMARKS
ROSWELL        FAIR      37  16  42 N15       30.04R WCI  28
ARTESIA        FAIR      34  19  55 N6        30.05R WCI  29
CARLSBAD       FAIR      41  18  39 NW17      30.02R
HOBBS          CLOUDY    41  41 100 NE8       30.02R FOG


$$




USA.gov is the U.S. government's official web portal to all federal, state and local government web resources and services.